AirNav   Everest Fuels
 
 781 users online  

KMEJ Meade Municipal Airport
Meade, Kansas, USA

GOING TO MEADE?


FAA INFORMATION EFFECTIVE 05 NOVEMBER 2020

Location

FAA Identifier: MEJ
Lat/Long: 37-16-43.2302N 100-21-23.2404W
37-16.720503N 100-21.387340W
37.2786751,-100.3564557
(estimated)
Elevation: 2527 ft. / 770.2 m (surveyed)
Variation: 08E (2000)
From city: 1 mile W of MEADE, KS
Time zone: UTC -6 (UTC -5 during Daylight Saving Time)
Zip code: 67864

Airport Operations

Airport use: Open to the public
Activation date: 06/1948
Control tower: no
ARTCC: KANSAS CITY CENTER
FSS: WICHITA FLIGHT SERVICE STATION
NOTAMs facility: ICT (NOTAM-D service available)
Attendance: MON-FRI 0800-1700
Wind indicator: lighted
Segmented circle: yes
Lights: ACTVT MIRL RY 17/35 - CTAF.
Beacon: white-green (lighted land airport)
Operates sunset to sunrise.

Airport Communications

CTAF/UNICOM: 122.8
WX AWOS-3: 119.425 (620-873-8447)
  • APCH/DEP SVC PRVDD BY KANSAS CITY ARTCC ON FREQS 134.0/257.625 (LIBERAL RCAG).

Nearby radio navigation aids

VOR radial/distance  VOR name  Freq  Var
LBLr053/32.6LIBERAL VORTAC112.3011E
DDCr198/38.2DODGE CITY VORTAC108.2008E

Airport Services

Fuel available: 100LL
24 HR SELF SVC AVBL WITH CREDIT CARD.
Parking: hangars and tiedowns
Bottled oxygen: NONE
Bulk oxygen: NONE

Runway Information

Runway 17/35

Dimensions: 4800 x 75 ft. / 1463 x 23 m
Surface: concrete, in fair condition
Weight bearing capacity: 
PCN 11 /R/C/X/U
Runway edge lights: medium intensity
RUNWAY 17  RUNWAY 35
Latitude: 37-17.032073N37-16.242767N
Longitude: 100-21.376605W100-21.313772W
Elevation: 2518.1 ft.2503.5 ft.
Traffic pattern: leftleft
Runway heading: 168 magnetic, 176 true348 magnetic, 356 true
Markings: nonprecision, in fair conditionnonprecision, in fair condition
Visual slope indicator: 2-light PAPI on left2-light PAPI on left
Touchdown point: yes, no lightsyes, no lights
Obstructions: 10 ft. road, 575 ft. from runway, 37:1 slope to clear10 ft. road, 500 ft. from runway, 30:1 slope to clear

Runway 8/26

Dimensions: 2085 x 85 ft. / 636 x 26 m
Surface: turf, in good condition
RUNWAY 8  RUNWAY 26
Latitude: 37-16.910947N37-16.912768N
Longitude: 100-21.699352W100-21.269410W
Elevation: 2527.0 ft.2510.7 ft.
Traffic pattern: leftleft
Runway heading: 082 magnetic, 090 true262 magnetic, 270 true
Markings: none, in good conditionnone, in good condition
Touchdown point: yes, no lightsyes, no lights
Obstructions: 17 ft. road, 284 ft. from runway, 16:1 slope to clear7 ft. pole, 272 ft. from runway, 38:1 slope to clear

Airport Ownership and Management from official FAA records

Ownership: Publicly-owned
Owner: CITY OF MEADE
PO BOX 338
MEADE, KS 67864
Phone 620-873-2091
DEAN CORDES - CITY ADMINISTRATOR.
Manager: DEAN CORDES
PO BOX 338
MEADE, KS 67864
Phone 620-873-2091
CRAIG STRATTON, BRINGHAM FLYING SVC-FBO 620-873-5191.

Airport Operational Statistics

Aircraft based on the field: 13
Single engine airplanes: 12
Multi engine airplanes: 1
    
Aircraft operations: avg 96/week *
60% local general aviation
40% transient general aviation
* for 12-month period ending 05 August 2019

Additional Remarks

PUBLIC TELEPHONE AVBL 24 HRS 620-873-8483.
TWY 'B' CLSD PERMLY.
FOR CD CTC KANSAS CITY ARTCC AT 913-254-8508.

Instrument Procedures

NOTE: All procedures below are presented as PDF files. If you need a reader for these files, you should download the free Adobe Reader.

NOT FOR NAVIGATION. Please procure official charts for flight.
FAA instrument procedures published for use from 05 November 2020 at 0901Z to 03 December 2020 at 0900z.

 
IAPs - Instrument Approach Procedures
RNAV (GPS) RWY 17   download (184KB)
RNAV (GPS) RWY 35   download (189KB)
NOTE: Special Take-Off Minimums/Departure Procedures apply   download (147KB)

Other nearby airports with instrument procedures:

KLBL - Liberal Mid-America Regional Airport (32 nm SW)
KDDC - Dodge City Regional Airport (35 nm NE)
KGCK - Garden City Regional Airport (43 nm NW)
KBFK - Buffalo Municipal Airport (43 nm SE)
K79 - Jetmore Municipal Airport (48 nm NE)
 
Loc | Ops | Rwys | IFR | FBO | Links
Com | Nav | Svcs | Stats | Notes

AirBoss

 
Area around KMEJ (Meade Municipal Airport)
 
Road maps at: MapQuest Bing Google
 
Aerial photo
WARNING: Photo may not be current or correct
Aerial photo of KMEJ (Meade Municipal Airport)
Photo by Von Rothenberge
Photo taken 14-Aug-2010
looking north.

Do you have a better or more recent aerial photo of Meade Municipal Airport that you would like to share? If so, please send us your photo.

 
Sectional chart

 
Airport distance calculator
Flying to Meade Municipal Airport? Find the distance to fly.

From to KMEJ

Sunrise and sunset
Times for 27-Nov-2020
 Local
(UTC-6)
 Zulu
(UTC)
Morning civil twilight07:0613:06
Sunrise07:3513:35
Sunset17:2423:24
Evening civil twilight17:5223:52

Current date and time
Zulu (UTC)  27-Nov-2020 13:52:14
Local (UTC-6)  27-Nov-2020 07:52:14
 
METAR
K19S 
26nm NW 
271315Z AUTO 31004KT 10SM CLR M05/M05 A3028 RMK AO2 T10471052
KLBL 
33nm SW 
271256Z AUTO 33006KT 10SM CLR M04/M05 A3026 RMK AO2 SLP272 T10391050 FZRANO
KDDC 
35nm NE 
271252Z AUTO 32007KT 10SM CLR M03/M04 A3024 RMK AO2 SLP257 T10281039
KGCK 
42nm NW 
271254Z AUTO 31008KT 10SM CLR M04/M05 A3025 RMK AO2 SLP271 T10441050
KHQG 
49nm W 
271315Z AUTO 34007KT 10SM CLR M02/M04 A3026 RMK AO2 T10251039
TAF
KLBL 
33nm SW 
271120Z 2712/2812 30009KT P6SM SKC
KDDC 
35nm NE 
271120Z 2712/2812 34007KT P6SM SKC
NOTAMs
Click for the latest NOTAMs
NOTAMs are issued by the DoD/FAA and will open in a separate window not controlled by AirNav.

 

 
 

FBO, Fuel Providers, and Aircraft Ground Support

  
 Business Name 
 
 Contact 
 
 Services / Description 
 
Fuel Prices
 
Comments
  
City of Meade 620-873-2091
no information available

If you are affiliated with City of Meade and would like to show here your services, contact info, web link, logo, and more, click here
100LL
SS $4.20 
 Updated 19-Oct-2020
 
   write
SS=Self service
Update Fuel Prices
 

Would you like to see your business listed on this page?

 If your business provides an interesting product or service to pilots, flight crews, aircraft, or users of the Meade Municipal Airport, you should consider listing it here.  To start the listing process, click on the button below
 
Add a business
 

Other Pages about Meade Municipal Airport

www.cityofmeade.org/mc_airport.htm
 
Update a link
 
Copyright © AirNav, LLC. All rights reserved. Privacy Policy  Contact